Retour au catalogue

METEOR 2-17 DEB

ActifPO
NORAD 29302·DEBRIS·🇷🇺 Russia

Lancé Jan 30, 1988 depuis Plesetsk Cosmodrome

Loading…

Prochains Passages (prochaines 24 heures)

TLE

FraisSource: Space-Track

Époque: Sep 12, 2026, 00:18 UTC

1 29302U 88005R   26255.01254772  .00001242  00000-0  69757-3 0  9991
2 29302  82.5565 141.6226 0016061   3.6502 356.4786 14.09788451633997

Suivez METEOR 2-17 DEB en temps réel avec AllMySat

Download on the App Store